Хойерсверда

Германия     51°26′20″N   14°15′10″E
темп.,
°C
ветер,
м/с
пор.,
м/с
влажн.,
%
обл.,
%
осадки,
мм/ч
давл.,
гПа
погр.,
м
1 марта, пн
пн101:00+1ссз119558 0.0 103622
04:00+1с019448 0.0 103531
07:00+2юз009174 0.0 103640
10:00+4з0182100 0.0 1036348
13:00+8вюв016892 0.0 1036473
16:00+8в11650 0.0 1035418
19:00+4вюв12830 0.0 103522
22:00+3вюв11860 0.0 103522
2 марта, вт
вт201:00+3юв12890 0.0 103622
04:00+2ю11880 0.0 103422
07:00+2юз11880 0.0 103522
10:00+8ююз12660 0.0 1035257
13:00+13юв01520 0.0 1034506
16:00+12всв12550 0.0 1033487
19:00+7всв22740 0.0 103322
22:00+6юв12800 0.0 103322
3 марта, ср
ср301:00+4юв12800 0.0 103322
04:00+3ю12790 0.0 103122
07:00+2ююз22810 0.0 103123
10:00+9ююз23610 0.0 1030285
13:00+13юз24490 0.0 1028716
16:00+12зюз255312 0.0 1025792
19:00+7юз23756 0.0 102446
22:00+6юз368296 0.0 1022147
4 марта, чт
чт401:00+6зюз398297 0.0 1021272
04:00+5зюз498634 0.0 1019270
07:00+5зюз399259 0.0 1018235
10:00+9з477832 0.0 1016579
13:00+11з366266 0.0 1015995
16:00+9зсз2578100 0.1 1012370
19:00+7сз2687100 0.5 1012534
22:00+6ссз4789100 1.2 1012618
5 марта, пт
пт501:00+4ссз2490100 2.1 1012464
04:00+2с4796100 0.6 1014420
07:000с5886100 1.3 1016701
10:00+1ссв476888 0.0 10191046
13:00+3с465355 0.1 10201661
16:00+3с465187 0.2 10211731
19:000ссз266776 0.4 1024197
22:00−2с257033 0.0 1026136